• Em Portugal
  • Lista de países
  • Para 7 dias
  • Temperatura da água
  • Mapas de satélite
  • Mapa do tempo
  • Widgets de tempo
  • user-avatar
    Iniciar Sessão

    Previsão horária em Bandar Abbas

    Hoje, 19 Setembro, Terça-feira

    Tempo Temperatura Precipitação Vento Pressão Humidade
    00:00 +37°C° 0 mm 2 m/s 755 mmHg 25%
    01:00 +37°C° 0 mm 3 m/s 755 mmHg 25%
    02:00 +36°C° 0 mm 2 m/s 755 mmHg 26%
    03:00 +36°C° 0 mm 2 m/s 755 mmHg 26%
    04:00 +35°C° 0 mm 2 m/s 755 mmHg 24%
    05:00 +34°C° 0 mm 1 m/s 755 mmHg 21%
    06:00 +35°C° 0 mm 1 m/s 755 mmHg 19%
    07:00 +35°C° 0 mm 1 m/s 755 mmHg 17%
    08:00 +37°C° 0 mm 1 m/s 755 mmHg 14%
    09:00 +40°C° 0 mm 1 m/s 755 mmHg 12%
    10:00 +42°C° 0 mm 2 m/s 755 mmHg 10%
    11:00 +43°C° 0 mm 2 m/s 755 mmHg 10%
    12:00 +45°C° 0 mm 3 m/s 755 mmHg 9%
    13:00 +45°C° 0 mm 4 m/s 754 mmHg 9%
    14:00 +45°C° 0 mm 4 m/s 754 mmHg 10%
    15:00 +45°C° 0 mm 4 m/s 753 mmHg 10%
    16:00 +46°C° 0 mm 5 m/s 753 mmHg 11%
    17:00 +43°C° 0 mm 4 m/s 753 mmHg 12%
    18:00 +42°C° 0 mm 3 m/s 753 mmHg 14%
    19:00 +39°C° 0 mm 2 m/s 754 mmHg 16%
    20:00 +39°C° 0 mm 2 m/s 754 mmHg 17%
    21:00 +38°C° 0 mm 2 m/s 754 mmHg 17%
    22:00 +38°C° 0 mm 2 m/s 755 mmHg 18%
    23:00 +37°C° 0 mm 2 m/s 755 mmHg 17%

    Amanhã, 20 Setembro, Quarta-feira

    Tempo Temperatura Precipitação Vento Pressão Humidade
    00:00 +37°C° 0 mm 3 m/s 754 mmHg 17%
    01:00 +36°C° 0 mm 3 m/s 754 mmHg 16%
    02:00 +36°C° 0 mm 3 m/s 754 mmHg 15%
    03:00 +35°C° 0 mm 3 m/s 754 mmHg 15%
    04:00 +35°C° 0 mm 3 m/s 754 mmHg 14%
    05:00 +35°C° 0 mm 2 m/s 754 mmHg 13%
    06:00 +35°C° 0 mm 2 m/s 755 mmHg 13%
    07:00 +36°C° 0 mm 2 m/s 755 mmHg 12%
    08:00 +38°C° 0 mm 3 m/s 755 mmHg 11%
    09:00 +40°C° 0 mm 3 m/s 755 mmHg 9%
    10:00 +43°C° 0 mm 3 m/s 755 mmHg 8%
    11:00 +43°C° 0 mm 3 m/s 755 mmHg 8%
    12:00 +44°C° 0 mm 3 m/s 754 mmHg 8%
    13:00 +44°C° 0 mm 3 m/s 754 mmHg 8%
    14:00 +45°C° 0 mm 3 m/s 753 mmHg 7%
    15:00 +45°C° 0 mm 4 m/s 753 mmHg 7%
    16:00 +45°C° 0 mm 4 m/s 752 mmHg 7%
    17:00 +43°C° 0 mm 3 m/s 753 mmHg 9%
    18:00 +42°C° 0 mm 3 m/s 753 mmHg 10%
    19:00 +39°C° 0 mm 2 m/s 753 mmHg 11%
    20:00 +38°C° 0 mm 2 m/s 753 mmHg 12%
    21:00 +36°C° 0 mm 1 m/s 754 mmHg 13%
    22:00 +35°C° 0 mm 1 m/s 754 mmHg 14%
    23:00 +36°C° 0 mm 2 m/s 754 mmHg 14%

    Depois de amanhã, 21 Setembro, Quinta-feira

    Tempo Temperatura Precipitação Vento Pressão Humidade
    00:00 +35°C° 0 mm 2 m/s 754 mmHg 14%
    01:00 +35°C° 0 mm 3 m/s 754 mmHg 13%
    02:00 +34°C° 0 mm 3 m/s 754 mmHg 14%
    03:00 +34°C° 0 mm 3 m/s 754 mmHg 14%
    04:00 +32°C° 0 mm 2 m/s 754 mmHg 14%
    05:00 +32°C° 0 mm 2 m/s 754 mmHg 13%
    06:00 +34°C° 0 mm 2 m/s 754 mmHg 12%
    07:00 +34°C° 0 mm 2 m/s 754 mmHg 11%
    08:00 +36°C° 0 mm 2 m/s 755 mmHg 10%
    09:00 +38°C° 0 mm 2 m/s 755 mmHg 9%
    10:00 +40°C° 0 mm 2 m/s 755 mmHg 8%
    11:00 +41°C° 0 mm 2 m/s 755 mmHg 7%
    12:00 +42°C° 0 mm 3 m/s 754 mmHg 7%
    13:00 +43°C° 0 mm 3 m/s 754 mmHg 6%
    14:00 +43°C° 0 mm 3 m/s 753 mmHg 7%
    15:00 +43°C° 0 mm 4 m/s 753 mmHg 7%
    16:00 +43°C° 0 mm 4 m/s 752 mmHg 7%
    17:00 +42°C° 0 mm 3 m/s 752 mmHg 9%
    18:00 +39°C° 0 mm 3 m/s 752 mmHg 11%
    19:00 +38°C° 0 mm 2 m/s 753 mmHg 12%
    20:00 +37°C° 0 mm 2 m/s 753 mmHg 13%
    21:00 +35°C° 0 mm 1 m/s 753 mmHg 14%
    22:00 +32°C° 0 mm 0 m/s 754 mmHg 15%
    23:00 +33°C° 0 mm 1 m/s 754 mmHg 15%

    22 Setembro, Sexta-feira

    Tempo Temperatura Precipitação Vento Pressão Humidade
    00:00 +34°C° 0 mm 2 m/s 754 mmHg 15%
    01:00 +32°C° 0 mm 2 m/s 754 mmHg 15%
    02:00 +32°C° 0 mm 2 m/s 753 mmHg 15%
    03:00 +32°C° 0 mm 2 m/s 753 mmHg 15%
    04:00 +31°C° 0 mm 2 m/s 753 mmHg 15%
    05:00 +32°C° 0 mm 2 m/s 754 mmHg 14%
    06:00 +32°C° 0 mm 1 m/s 754 mmHg 13%
    07:00 +32°C° 0 mm 1 m/s 755 mmHg 13%
    08:00 +35°C° 0 mm 1 m/s 755 mmHg 11%
    09:00 +37°C° 0 mm 1 m/s 755 mmHg 9%
    10:00 +40°C° 0 mm 1 m/s 755 mmHg 8%
    11:00 +41°C° 0 mm 2 m/s 755 mmHg 7%
    12:00 +41°C° 0 mm 2 m/s 754 mmHg 7%
    13:00 +42°C° 0 mm 2 m/s 754 mmHg 6%
    14:00 +43°C° 0 mm 3 m/s 753 mmHg 6%
    15:00 +43°C° 0 mm 3 m/s 753 mmHg 6%
    16:00 +43°C° 0 mm 4 m/s 753 mmHg 7%
    17:00 +42°C° 0 mm 3 m/s 753 mmHg 8%
    18:00 +39°C° 0 mm 3 m/s 753 mmHg 10%
    19:00 +38°C° 0 mm 2 m/s 753 mmHg 11%
    20:00 +37°C° 0 mm 2 m/s 754 mmHg 12%
    21:00 +35°C° 0 mm 1 m/s 754 mmHg 12%
    22:00 +34°C° 0 mm 1 m/s 755 mmHg 13%
    23:00 +34°C° 0 mm 1 m/s 755 mmHg 13%

    23 Setembro, Sábado

    Tempo Temperatura Precipitação Vento Pressão Humidade
    00:00 +33°C° 0 mm 1 m/s 755 mmHg 13%
    01:00 +34°C° 0 mm 2 m/s 755 mmHg 13%
    02:00 +32°C° 0 mm 2 m/s 755 mmHg 13%
    03:00 +32°C° 0 mm 2 m/s 755 mmHg 13%
    04:00 +31°C° 0 mm 2 m/s 755 mmHg 13%
    05:00 +32°C° 0 mm 2 m/s 755 mmHg 12%
    06:00 +32°C° 0 mm 2 m/s 755 mmHg 11%
    07:00 +34°C° 0 mm 2 m/s 756 mmHg 10%
    08:00 +36°C° 0 mm 2 m/s 756 mmHg 9%
    09:00 +38°C° 0 mm 2 m/s 756 mmHg 8%
    10:00 +40°C° 0 mm 2 m/s 757 mmHg 7%
    11:00 +41°C° 0 mm 2 m/s 756 mmHg 6%
    12:00 +42°C° 0 mm 2 m/s 756 mmHg 6%
    13:00 +42°C° 0 mm 2 m/s 755 mmHg 6%
    14:00 +42°C° 0 mm 2 m/s 755 mmHg 6%
    15:00 +44°C° 0 mm 3 m/s 754 mmHg 6%
    16:00 +44°C° 0 mm 3 m/s 754 mmHg 6%
    17:00 +42°C° 0 mm 3 m/s 754 mmHg 7%
    18:00 +40°C° 0 mm 3 m/s 755 mmHg 8%
    19:00 +38°C° 0 mm 3 m/s 755 mmHg 9%
    20:00 +37°C° 0 mm 2 m/s 755 mmHg 9%
    21:00 +37°C° 0 mm 2 m/s 756 mmHg 10%
    22:00 +36°C° 0 mm 2 m/s 756 mmHg 10%
    23:00 +34°C° 0 mm 1 m/s 756 mmHg 10%

    24 Setembro, Domingo

    Tempo Temperatura Precipitação Vento Pressão Humidade
    00:00 +34°C° 0 mm 1 m/s 756 mmHg 10%
    01:00 +33°C° 0 mm 1 m/s 755 mmHg 10%
    02:00 +33°C° 0 mm 1 m/s 755 mmHg 10%
    03:00 +32°C° 0 mm 1 m/s 755 mmHg 10%
    04:00 +31°C° 0 mm 1 m/s 755 mmHg 10%
    05:00 +32°C° 0 mm 1 m/s 756 mmHg 10%
    06:00 +32°C° 0 mm 2 m/s 756 mmHg 9%
    07:00 +34°C° 0 mm 2 m/s 757 mmHg 8%
    08:00 +36°C° 0 mm 2 m/s 757 mmHg 7%
    09:00 +38°C° 0 mm 2 m/s 757 mmHg 7%
    10:00 +41°C° 0 mm 2 m/s 757 mmHg 6%
    11:00 +41°C° 0 mm 2 m/s 757 mmHg 6%
    12:00 +42°C° 0 mm 2 m/s 756 mmHg 5%
    13:00 +43°C° 0 mm 2 m/s 756 mmHg 5%
    14:00 +43°C° 0 mm 2 m/s 755 mmHg 5%
    15:00 +43°C° 0 mm 2 m/s 755 mmHg 5%
    16:00 +44°C° 0 mm 3 m/s 754 mmHg 5%
    17:00 +43°C° 0 mm 3 m/s 755 mmHg 6%
    18:00 +40°C° 0 mm 3 m/s 755 mmHg 7%
    19:00 +38°C° 0 mm 3 m/s 755 mmHg 8%
    20:00 +38°C° 0 mm 2 m/s 755 mmHg 8%
    21:00 +37°C° 0 mm 2 m/s 756 mmHg 8%
    22:00 +36°C° 0 mm 2 m/s 756 mmHg 9%
    23:00 +35°C° 0 mm 2 m/s 756 mmHg 9%
    Mostrar mais